Hourly Data Report for September 06, 2017

All times are specified in Local Standard Time (LST). Add 1 hour to adjust for Daylight Saving Time where and when it is observed.

SATURNA ISLAND CS
BRITISH COLUMBIA

48°47'02.067" N
123°02'41.082" W
24.40 m
1017101
71473
WEZ

Download Data

Hourly Data (September 2017)
Hourly Data Report for September 6, 2017
Temp Definition
°C
Dew Point Temp Definition
°C
Rel Hum Definition
%
Wind Dir Definition
10's deg

Wind Spd Definition
km/h
Visibility Definition
km
Stn Press Definition
kPa
Hmdx Definition


Wind Chill Definition


Weather Definition


TIME
00:00 22.0 12.7 55 25 5   101.00 25   LegendNANA
01:00 20.1 12.7 62 30 2   101.00     LegendNANA
02:00 17.9 12.6 71 21 12   101.03     LegendNANA
03:00 17.9 13.0 73 22 11   101.02     LegendNANA
04:00 18.3 13.0 71 22 15   101.05     LegendNANA
05:00 16.7 11.5 71 22 13   101.04     LegendNANA
06:00 16.7 12.3 75 23 20   101.05     LegendNANA
07:00 17.6 13.4 77 22 22   101.07     LegendNANA
08:00 16.9 13.1 78 22 22   101.06     LegendNANA
09:00 18.1 13.1 73 21 11   101.08     LegendNANA
10:00 18.7 13.1 70 23 13   101.06     LegendNANA
11:00 20.0 13.1 64 22 20   101.03     LegendNANA
12:00 18.7 13.1 70 22 20   100.98     LegendNANA
13:00 17.6 12.6 73 22 20   100.96     LegendNANA
14:00 19.9 13.6 67 22 17   100.92     LegendNANA
15:00 21.0 13.5 62 22 22   100.92     LegendNANA
16:00 19.9 13.9 68 22 18   100.89     LegendNANA
17:00 18.2 13.8 76 11 8   100.86     LegendNANA
18:00 17.5 12.9 75 23 19   100.87     LegendNANA
19:00 16.4 12.8 80 23 20   100.91     LegendNANA
20:00 16.1 13.0 82 23 12   100.91     LegendNANA
21:00 15.8 12.2 79 24 10   100.93     LegendNANA
22:00 15.3 12.1 81 23 17   100.97     LegendNANA
23:00 13.1 11.0 87 21 15   100.99     LegendNANA

Notes on Data Quality.

Legend

  • E = Estimated
  • M = Missing
  • NA = Not Available
  • ‡ = Partner data that is not subject to review by the National Climate Archives
Date modified: